Location: Bailleul
(50.3375°N, 2.8513°E)
Time: 15:58:47
(UTC+00:00)

Orbus 7S? - Pass Details

Date: 19 April 2021
Orbit: 334 x 6415 km, 56.9° (Epoch: 05 May)

Event Time Altitude Azimuth Distance (km) Brightness Sun altitude
Rises 20:13:12 0° 232° (SW) 2,187 6.6 -12.6°
Reaches altitude 10° 20:14:44 10° 230° (SW) 1,469 5.7 -12.8°
Maximum altitude 20:17:39 79° 144° (SE) 572 3.2 -13.2°
Drops below altitude 10° 20:23:24 10° 59° (ENE) 2,839 6.7 -13.9°
Sets 20:27:28 0° 58° (ENE) 4,601 7.8 -14.4°
